Showing default

APSTAR 6D, 45863

Orbit data source: Space-Track

APSTAR 6D, 45863 is a payload satellite owned by APT Shenzhen (CN) in GEO that was launched on Thu, 09 Jul 2020 UTC via a CHANG ZHENG 3B launch vehicle from the Xichang Space Center, China (XSC). Payload-class satellites include a variety of spacecraft equipped with specific instruments for various scientific and technological missions. These include communications satellites like Starlink; space stations such as the ISS; scientific satellites like the Hubble; Earth observation satellites from companies like Planet Labs, Umbra, and HawkEye 360; GPS; miniature CubeSats for education and research; and military/defense satellites.

Not visible in the next 10 days
Identifier
45863, 2020-045A
Orbit
GEO
Country
Flag of CNCN / PRC
Related business
Manufacturer
CAST
Mission
Operational Commercial Communications
Bus & Motor
DFH-4E, DFH-4 LAE
Mass
~5,000 kg wet, ~2,500 kg dry
Launch date (UTC)
2020-07-09 (5 years ago)
Launch vehicle
CHANG ZHENG 3B
Launch site
Xichang Space Center, China (XSC)
Object type
Payload
Rocket body
Debris
Shape & HBR
Box + 2 Pan, Unknown HBR
Radar Cross Section
34.063 m², Large (>1 m²)

Expand to show TLE details & history
Last TLE update: 1 day ago

TLE from 1 day ago
0 APSTAR 6D
1 45863U 20045A   25307.72475218  .00000000  00000-0  00000+0 0  9999
2 45863   0.0187  94.3737 0001594  30.8128 312.9711  1.00269964 19593
Epoch: 2025-11-03T17:23Z
TLE epoch observation values (Epoch: 2025-11-03T17:23:38.588Z)
Latitude
0.00029°
Longitude
133.97164°
Altitude
35,782.044 km
Speed
3.075 km/s
True Right ascension
05h 12m 25s
True Declination
0° 00' 01"
Sunlit
Object was in daylight at epoch
Visualization orbit readout
Latitude
Unknown
Longitude
Unknown
Altitude
Unknown
Speed
Unknown
Apparent Right ascension
Unknown
Apparent Declination
Unknown
Sunlit
N/A
Visualization observer readout
Local Sidereal Time
00:13:50
Azimuth
Unknown
Elevation
Unknown
Doppler factor
Unknown
Orbital elements
Apogee altitude
35,794.897 km
Perigee altitude
35,781.455 km
Semi-major axis
42,166.313 km
Eccentricity
0.00016
Inclination
0.0187°
RAAN
94.3737°
Arg. of periapsis
30.8128°
True anomaly
312.95773°
Mean anomaly
312.9711°
Eccentric anomaly
312.96442°
Mean motion
0.25067 °/min
Orbital period
1,436.18 mins
BSTAR
0
Loading maneuver chart data...
Computing Atmospheric mass density...
Loading historical data...
Loading historical data...
Loading historical data...
Loading historical data...
Loading historical data...
Loading historical data...
Loading historical data...
Other satellites on launch #45 in the year 2020 (2020-07-09 UTC)

Documentation

Showing up to 5 results
|